Total_Precipitation_Accumulation
0.00 0.01 0.08 0.25 0.75 0.94 0.92 0.55 0.42 0.34 0.34 0.36 0.43 0.42 0.40 0.44 0.51 0.83 0.44 0.14 0.05 0.01 0.02 0.10 0.18 0.16 0.13 0.11 0.12 0.14 0.16 0.15 0.15 0.14 0.13 0.10 0.08 0.06 0.06 0.06 0.06 0.07 0.09 0.08 0.10 0.13 0.14 0.17 0.21
0.01 0.03 0.12 0.41 0.77 0.91 0.85 0.45 0.34 0.31 0.28 0.39 0.45 0.37 0.31 0.34 0.25 0.21 0.20 0.16 0.06 0.01 0.01 0.03 0.13 0.14 0.12 0.12 0.13 0.13 0.13 0.12 0.12 0.11 0.10 0.08 0.07 0.07 0.07 0.07 0.08 0.09 0.09 0.09 0.11 0.14 0.14 0.14 0.18
0.02 0.06 0.20 0.44 0.47 0.51 0.52 0.30 0.28 0.34 0.42 0.60 0.69 0.46 0.37 0.44 0.29 0.15 0.12 0.10 0.07 0.03 0.02 0.05 0.11 0.12 0.12 0.11 0.11 0.11 0.10 0.10 0.10 0.10 0.09 0.08 0.07 0.07 0.08 0.08 0.10 0.11 0.11 0.12 0.14 0.17 0.16 0.14 0.15
0.02 0.10 0.23 0.30 0.19 0.21 0.28 0.21 0.27 0.37 0.65 0.78 0.79 0.61 0.48 0.42 0.30 0.20 0.10 0.09 0.08 0.05 0.04 0.07 0.11 0.12 0.12 0.12 0.12 0.11 0.10 0.09 0.09 0.09 0.09 0.07 0.07 0.08 0.09 0.10 0.11 0.12 0.14 0.14 0.16 0.16 0.16 0.16 0.17
0.02 0.11 0.22 0.16 0.08 0.10 0.13 0.12 0.19 0.30 0.54 0.74 0.75 0.75 0.68 0.53 0.43 0.28 0.15 0.09 0.06 0.04 0.05 0.07 0.13 0.15 0.14 0.13 0.14 0.13 0.12 0.10 0.10 0.10 0.09 0.08 0.09 0.10 0.10 0.12 0.13 0.13 0.16 0.17 0.16 0.16 0.19 0.21 0.23
0.02 0.08 0.16 0.10 0.06 0.07 0.09 0.10 0.20 0.36 0.57 0.74 0.87 0.91 0.75 0.52 0.41 0.29 0.20 0.17 0.18 0.06 0.05 0.09 0.15 0.17 0.17 0.17 0.17 0.16 0.14 0.13 0.12 0.12 0.11 0.11 0.11 0.11 0.12 0.14 0.15 0.15 0.17 0.16 0.17 0.17 0.19 0.24 0.27
0.02 0.03 0.07 0.07 0.04 0.05 0.08 0.14 0.24 0.38 0.50 0.78 1.03 1.03 0.75 0.65 0.52 0.35 0.34 0.30 0.47 0.24 0.12 0.12 0.13 0.17 0.20 0.22 0.21 0.18 0.16 0.16 0.15 0.14 0.12 0.11 0.11 0.11 0.13 0.16 0.19 0.19 0.20 0.18 0.18 0.19 0.22 0.26 0.29
0.00 0.01 0.02 0.02 0.01 0.03 0.07 0.14 0.25 0.37 0.64 0.90 0.89 0.94 0.94 0.71 0.63 0.58 0.59 0.53 0.58 0.44 0.29 0.22 0.22 0.28 0.27 0.25 0.23 0.23 0.21 0.18 0.16 0.14 0.12 0.12 0.12 0.16 0.21 0.22 0.23 0.25 0.27 0.27 0.27 0.29 0.33 0.36 0.37
0.00 0.01 0.02 0.01 0.01 0.03 0.10 0.20 0.26 0.32 0.53 0.69 0.77 0.74 0.58 0.57 0.71 0.77 0.78 0.77 0.77 0.69 0.62 0.54 0.44 0.40 0.42 0.39 0.32 0.34 0.34 0.33 0.28 0.28 0.28 0.29 0.35 0.42 0.54 0.50 0.54 0.50 0.49 0.51 0.52 0.54 0.58 0.59 0.50
0.00 0.00 0.01 0.00 0.00 0.03 0.09 0.18 0.30 0.37 0.64 0.97 1.04 1.09 0.77 0.79 0.93 0.95 0.92 0.81 0.91 1.02 0.92 0.91 0.78 0.58 0.50 0.47 0.60 0.73 0.71 0.74 0.70 0.75 0.74 0.76 0.79 0.76 0.69 0.83 0.92 0.95 1.03 1.02 1.04 1.20 1.06 0.83 0.66
0.00 0.00 0.00 0.00 0.00 0.01 0.04 0.10 0.14 0.32 0.73 1.16 1.23 1.22 1.02 1.00 1.09 1.16 1.16 1.21 1.29 1.46 1.25 1.00 0.97 0.90 0.85 0.87 0.89 0.95 1.07 1.16 1.25 1.30 1.29 1.36 1.18 1.01 0.97 1.22 1.38 1.35 1.34 1.24 1.51 1.71 1.31 1.25 1.36
0.00 0.00 0.00 0.00 0.00 0.01 0.03 0.10 0.19 0.34 0.77 1.04 0.95 0.84 0.86 1.07 1.24 1.37 1.64 1.81 1.92 2.03 1.88 1.70 1.46 1.36 1.32 1.19 1.05 1.01 1.00 1.10 1.19 1.30 1.38 1.53 1.56 1.45 1.48 1.63 1.52 1.49 1.51 1.69 1.73 1.86 1.69 1.61 1.59
0.00 0.00 0.00 0.00 0.01 0.01 0.05 0.14 0.27 0.39 0.67 0.64 0.55 0.62 1.01 1.28 1.48 1.72 1.91 2.07 2.22 2.47 2.43 2.71 2.41 2.03 1.76 1.50 1.26 1.07 1.00 0.90 0.90 1.02 1.25 1.43 1.55 1.64 1.74 1.59 1.45 1.28 1.54 1.81 1.84 1.68 1.83 1.86 1.94
0.00 0.00 0.01 0.02 0.01 0.02 0.05 0.10 0.33 0.45 0.56 0.62 0.60 0.84 1.32 1.81 1.98 2.14 2.38 2.70 2.91 3.25 3.16 3.17 3.26 2.66 2.10 1.74 1.45 1.21 0.98 0.97 0.97 1.01 1.10 1.28 1.42 1.50 1.55 1.50 1.40 1.33 1.49 1.69 1.72 1.71 1.93 2.03 2.03
0.00 0.03 0.10 0.09 0.05 0.05 0.07 0.19 0.43 0.59 0.60 0.79 0.88 1.09 1.61 2.24 2.22 2.44 2.64 2.98 3.34 3.76 3.88 3.82 3.78 3.26 2.77 2.44 1.95 1.46 1.22 1.08 1.10 1.10 1.01 1.05 1.15 1.19 1.31 1.33 1.28 1.32 1.39 1.42 1.41 1.47 1.65 1.64 1.58
0.01 0.08 0.23 0.18 0.09 0.08 0.13 0.52 0.72 0.65 0.59 0.86 1.12 1.36 1.80 2.42 2.45 2.72 3.07 3.43 3.95 4.36 4.64 4.62 4.29 3.93 3.29 2.80 2.40 1.96 1.68 1.44 1.24 1.11 0.95 0.81 0.86 0.92 1.01 0.99 1.01 1.06 1.11 1.11 1.12 1.18 1.28 1.36 1.48
0.03 0.08 0.19 0.19 0.14 0.12 0.19 0.63 0.67 0.44 0.57 0.84 1.17 1.47 1.73 2.07 2.54 3.09 3.54 3.92 4.60 5.56 6.02 5.78 5.02 4.42 3.64 2.95 2.63 2.40 2.20 1.87 1.53 1.35 1.12 0.92 0.82 0.84 0.89 0.87 0.89 0.82 0.84 0.87 0.82 0.93 1.06 1.17 1.23
0.03 0.06 0.14 0.21 0.16 0.21 0.31 0.41 0.52 0.55 0.72 0.93 1.14 1.30 1.56 1.84 2.27 2.93 3.42 3.94 4.78 5.98 6.66 6.53 5.76 4.71 3.80 3.22 2.87 2.66 2.35 1.98 1.61 1.43 1.22 0.98 0.84 0.79 0.76 0.71 0.67 0.59 0.62 0.69 0.74 0.86 0.92 0.93 0.99
0.03 0.06 0.13 0.21 0.16 0.24 0.32 0.42 0.56 0.71 0.93 0.95 1.01 1.08 1.26 1.58 1.99 2.55 3.13 3.66 4.31 4.97 5.42 5.32 4.66 3.99 3.24 2.64 2.11 1.88 1.66 1.44 1.27 1.17 1.01 0.92 0.80 0.72 0.66 0.55 0.55 0.48 0.47 0.52 0.53 0.60 0.67 0.69 0.75
0.04 0.07 0.13 0.17 0.14 0.14 0.25 0.50 0.64 0.73 0.88 0.83 0.84 0.78 0.94 1.35 1.94 2.60 3.17 3.42 3.37 3.51 3.62 3.14 2.87 2.63 2.17 1.86 1.61 1.39 1.30 1.11 0.93 0.86 0.79 0.64 0.59 0.60 0.54 0.53 0.49 0.47 0.48 0.44 0.45 0.51 0.55 0.57 0.61
0.07 0.09 0.09 0.15 0.16 0.21 0.35 0.66 0.84 0.76 0.72 0.62 0.63 0.75 1.20 1.62 2.01 2.46 2.61 2.63 2.52 2.43 2.32 1.97 1.78 1.87 1.74 1.63 1.51 1.35 1.31 1.19 0.94 0.75 0.66 0.54 0.45 0.45 0.48 0.50 0.51 0.49 0.43 0.40 0.43 0.42 0.44 0.45 0.47
0.07 0.06 0.04 0.04 0.12 0.34 0.50 0.89 1.03 0.91 0.80 0.56 0.57 0.90 1.43 1.73 1.97 1.92 1.54 1.40 1.53 1.59 1.61 1.74 1.68 1.63 1.49 1.43 1.20 1.00 0.88 0.76 0.64 0.59 0.55 0.52 0.44 0.39 0.39 0.42 0.47 0.44 0.40 0.42 0.33 0.32 0.38 0.40 0.36
0.04 0.04 0.03 0.05 0.15 0.39 0.65 1.05 1.22 0.96 0.76 0.52 0.42 0.53 0.90 1.14 1.05 0.82 0.70 0.74 0.94 1.16 1.38 1.71 1.70 1.51 1.36 1.27 1.17 1.13 0.99 0.88 0.73 0.66 0.65 0.60 0.55 0.46 0.37 0.33 0.37 0.41 0.44 0.49 0.41 0.38 0.36 0.34 0.31
0.03 0.04 0.10 0.20 0.37 0.82 0.86 0.94 1.15 0.95 0.73 0.53 0.34 0.38 0.62 0.65 0.47 0.46 0.51 0.66 0.84 1.01 1.11 1.30 1.39 1.46 1.41 1.36 1.23 1.19 1.08 0.98 0.85 0.71 0.63 0.60 0.55 0.52 0.48 0.44 0.47 0.49 0.45 0.45 0.44 0.46 0.43 0.41 0.37
0.03 0.05 0.25 0.60 0.89 1.00 0.71 0.85 1.14 0.75 0.48 0.35 0.23 0.20 0.23 0.25 0.31 0.44 0.46 0.56 0.60 0.72 0.75 0.83 0.92 1.04 1.11 1.15 1.16 1.16 1.09 1.00 0.86 0.74 0.63 0.60 0.51 0.45 0.45 0.45 0.50 0.52 0.51 0.47 0.42 0.41 0.44 0.50 0.50
0.04 0.03 0.10 0.21 0.31 0.49 0.64 1.04 1.10 0.68 0.33 0.18 0.11 0.08 0.10 0.13 0.15 0.18 0.22 0.26 0.32 0.45 0.56 0.61 0.66 0.68 0.68 0.70 0.81 0.91 0.88 0.83 0.78 0.78 0.64 0.57 0.54 0.50 0.47 0.43 0.42 0.43 0.44 0.43 0.39 0.33 0.34 0.40 0.49
0.03 0.03 0.04 0.05 0.08 0.30 0.71 0.97 0.83 0.47 0.27 0.17 0.12 0.08 0.07 0.07 0.06 0.08 0.11 0.16 0.23 0.29 0.39 0.49 0.51 0.51 0.52 0.56 0.61 0.63 0.65 0.68 0.69 0.67 0.58 0.50 0.54 0.51 0.47 0.41 0.37 0.35 0.37 0.39 0.40 0.36 0.35 0.35 0.34
0.04 0.03 0.03 0.05 0.10 0.23 0.53 0.97 1.07 0.67 0.37 0.22 0.17 0.11 0.07 0.08 0.06 0.06 0.08 0.12 0.17 0.21 0.31 0.42 0.43 0.41 0.45 0.52 0.55 0.51 0.58 0.62 0.62 0.60 0.55 0.49 0.49 0.49 0.46 0.41 0.36 0.32 0.31 0.33 0.38 0.37 0.40 0.44 0.43
0.05 0.04 0.05 0.06 0.07 0.15 0.38 0.60 0.55 0.50 0.36 0.23 0.17 0.11 0.08 0.08 0.08 0.07 0.07 0.10 0.12 0.16 0.23 0.31 0.37 0.36 0.36 0.41 0.47 0.51 0.54 0.61 0.63 0.59 0.61 0.55 0.52 0.50 0.47 0.45 0.43 0.36 0.31 0.32 0.35 0.37 0.40 0.46 0.53
0.07 0.07 0.07 0.08 0.08 0.10 0.19 0.30 0.30 0.29 0.33 0.33 0.21 0.13 0.11 0.14 0.13 0.09 0.09 0.11 0.10 0.13 0.19 0.25 0.27 0.30 0.31 0.37 0.46 0.48 0.49 0.54 0.60 0.57 0.58 0.60 0.59 0.57 0.53 0.48 0.46 0.38 0.33 0.34 0.35 0.35 0.38 0.47 0.57